Location: Kruhel
(50.0425°N, 22.6466°E)
Time: 01:36:33
(UTC+00:00)

Daily predictions for brighter satellites

Satellite Brightness Start Highest point End
(mag) Time Altitude Azimuth Time Altitude Azimuth Time Altitude Azimuth
Cosmos 1674 2.9 00:00:36 10° N 00:04:19 64° ENE 00:05:00 51° SE
Cosmos 773 Rocket 4.1 00:00:12 10° NNW 00:05:12 53° WSW 00:06:13 45° SW
Cosmos 1634 Rocket 4.0 00:05:45 34° S 00:08:40 79° E 00:14:56 10° NNE
Cosmos 1536 Rocket 3.6 00:06:26 10° NNW 00:10:42 58° W 00:11:19 52° SW
Cosmos 2219 Rocket 3.4 00:06:31 10° NW 00:11:01 25° WSW 00:11:13 25° WSW
Cosmos 1437 4.2 00:09:44 10° NNW 00:11:26 26° NW 00:11:26 26° NW
Lacrosse 4 Rocket 3.0 00:13:01 20° W 00:14:56 27° NW 00:18:35 10° NNE
IRAS Rocket 4.2 00:14:44 36° S 00:17:02 68° WSW 00:22:38 10° NNW
FALCON 9 DEB 3.7 00:15:49 13° WNW 00:18:55 59° NNE 00:22:22 10° E
Meteor 1-24 Rocket 4.2 00:16:46 10° N 00:22:14 56° ENE 00:26:47 14° SSE
SL-4 R/B 1.4 00:22:19 55° W 00:22:59 85° SSW 00:26:23 10° ESE
SL-16 R/B 2.5 00:17:33 10° NNW 00:23:16 69° ENE 00:28:56 10° SE
Meteor 2-5 Rocket 3.8 00:20:01 10° N 00:25:43 77° ENE 00:29:33 21° SSE
COSMOS 2428 4.1 00:24:54 10° NW 00:29:00 20° W 00:29:12 20° WSW
SL-16 R/B 2.6 00:28:37 30° S 00:31:43 59° WSW 00:37:56 10° NNW
ARIANE 5 R/B 4.3 00:28:46 10° NE 00:33:09 26° E 00:37:31 10° SSE
NPP 3.6 00:28:47 10° NNE 00:34:14 87° ESE 00:36:53 32° SSW
CZ-2D R/B 2.2 00:29:55 10° NNE 00:35:26 81° WNW 00:38:05 32° SSW
USA 267 3.4 00:29:29 10° ESE 00:36:01 77° NNE 00:42:35 10° WNW
BREEZE-M TANK 2.7 00:36:08 42° S 00:36:16 42° S 00:41:15 10° ESE
Cosmos 1680 Rocket 3.7 00:31:24 10° NNW 00:36:40 70° ENE 00:41:51 10° SSE
GEOS 3 Rocket 4.1 00:34:12 10° NE 00:39:30 59° NW 00:42:46 23° WSW
Cosmos 1607 4.0 00:33:03 10° NW 00:39:32 88° SW 00:46:01 10° SE
Okean 2 Rocket 4.4 00:41:46 23° W 00:43:05 27° WNW 00:46:57 10° N
KORONAS-FOTON 4.1 00:39:31 10° NNW 00:43:09 47° W 00:43:44 43° SW
AQUA 3.8 00:38:30 10° NNE 00:43:18 88° E 00:45:33 32° SSW
ADEOS II 2.6 00:38:49 10° NNE 00:44:00 55° E 00:47:27 21° S
Cosmos 2263 Rocket 4.5 00:44:23 10° SE 00:47:39 16° E 00:50:55 10° ENE
Meteor 1-22 Rocket 4.3 00:44:53 23° S 00:48:11 65° E 00:53:28 10° NNE
Cosmos 2333 Rocket 4.2 00:46:25 10° WNW 00:48:11 12° W 00:48:11 12° W
IRS-1D 3.7 00:43:18 10° NNE 00:48:21 68° ESE 00:51:26 24° S
Cosmos 1980 4.5 00:43:25 10° NW 00:48:23 32° WSW 00:49:51 28° SW
Cosmos 2297 Rocket 2.2 00:45:36 30° SW 00:48:29 78° WNW 00:54:11 10° NNE
Cosmos 2219 3.3 00:45:50 29° SW 00:48:42 69° WNW 00:54:20 10° NNE
Uosat 12 SS-18 rocket 4.2 00:48:34 32° SW 00:50:52 84° NW 00:55:20 10° NE
Cosmos 1777 Rocket 4.5 00:49:00 28° WSW 00:51:34 51° WNW 00:56:46 10° NNE
Cosmos 1766 3.2 00:51:10 39° SSW 00:52:31 75° W 00:56:26 10° N
Cosmos 2266 Rocket 4.3 00:47:03 10° N 00:53:27 72° ENE 00:59:44 10° SSE
UNK 4.5 00:52:22 30° SW 00:53:35 35° W 00:57:54 10° NNW
Okean 1-7 Rocket 3.9 00:49:20 10° N 00:53:44 64° ENE 00:57:41 13° SSE
Cosmos 1655 Rocket 4.0 00:47:40 10° N 00:54:00 90° W 00:59:34 13° S
Cosmos 2237 Rocket 3.1 00:53:36 10° NW 00:58:23 29° WSW 00:59:51 25° SW
TIMED 4.4 00:54:19 10° NNW 00:58:44 86° WSW 01:02:53 11° SSE
CZ-4B R/B 3.3 00:57:24 10° NNE 01:02:13 83° WNW 01:04:55 26° SSW
Okean 1 Rocket 3.5 01:01:02 30° SW 01:02:44 45° WNW 01:06:57 10° N
Cosmos 1626 2.0 00:59:05 10° NNW 01:02:47 67° W 01:04:25 31° S
CZ-4C R/B 4.4 01:04:19 22° W 01:04:19 22° W 01:07:01 10° NW
Meteor 1-28 Rocket 3.6 01:01:24 11° SSE 01:05:01 62° ENE 01:08:48 10° N
Cosmos 923 Rocket 4.1 01:01:27 10° NNW 01:06:40 56° WSW 01:10:51 16° S
Cosmos 1470 3.4 01:06:22 18° SSE 01:09:07 54° E 01:13:01 10° NNE
SL-08 R/B 3.5 01:05:29 10° SSE 01:10:26 84° ENE 01:15:26 10° NNW
Cosmos 2098 Rocket 3.5 01:08:03 10° N 01:12:40 88° W 01:18:33 10° S
Cosmos 158 Rocket 4.1 01:09:45 10° NNW 01:15:02 61° WSW 01:20:20 10° S
Cosmos 1805 4.5 01:24:26 21° WSW 01:26:02 28° WNW 01:29:25 10° N
SL-14 R/B 3.8 01:22:39 10° NNW 01:26:22 40° W 01:28:23 22° SSW
SJ 16-02 1.4 01:25:10 22° SW 01:27:54 65° WNW 01:32:20 10° NNE
ERBS 3.1 01:26:16 10° WNW 01:29:08 27° SW 01:31:58 10° SSE
Cosmos 1943 3.9 01:24:31 10° NNW 01:30:05 57° NE 01:35:37 10° SE
IRS-P3 4.1 01:26:49 10° NNE 01:32:12 80° WNW 01:36:40 15° SSW
Resurs 1-4 Rocket 3.3 01:31:27 10° N 01:35:54 28° WNW 01:39:24 14° WSW
Cosmos 1626 Rocket 3.6 01:32:04 10° N 01:36:25 81° E 01:40:45 10° SSE
Spot 4 Rocket 4.5 01:31:41 10° NNE 01:36:50 61° ESE 01:41:56 10° S
Cosmos 1455 Rocket 3.1 01:34:24 18° SSW 01:37:39 65° WNW 01:42:06 10° N
Cosmos 2227 Rocket 2.9 01:33:34 16° WSW 01:37:45 44° NW 01:43:10 10° NNE
Cosmos 1758 3.3 01:37:38 15° SSW 01:40:59 83° W 01:45:03 10° N
SeaSat 1 4.0 01:37:34 10° NE 01:41:57 31° ESE 01:46:18 10° S
Cosmos 1892 Rocket 4.4 01:39:08 10° NNW 01:43:10 33° W 01:46:08 16° SSW
USA 215 3.3 01:38:52 10° ENE 01:45:28 90° WSW 01:51:29 13° WSW
Landsat 5 3.8 01:45:09 10° SSE 01:49:01 66° ENE 01:53:02 10° N
CZ-2C R/B 3.6 01:46:10 10° NNE 01:50:00 50° E 01:53:42 10° S
CZ-2D R/B 3.4 01:46:17 10° NNE 01:50:24 82° ESE 01:54:23 10° SSW
Cosmos 1461 3.0 01:47:03 16° SW 01:50:29 90° SSE 01:55:06 10° NE
ATLAS 3B R/B 4.5 01:45:25 10° WNW 01:50:53 26° N 01:56:28 10° NE
Meteor 2-21 4.4 01:45:01 10° NNW 01:51:06 80° W 01:57:09 10° S
Cosmos 724 4.3 01:45:42 10° NW 01:51:41 76° SW 01:57:46 10° SSE
FALCON 9 DEB 3.4 01:52:33 10° WNW 01:55:56 47° SSW 01:59:17 10° SE
Cosmos 1340 Rocket 3.0 01:54:19 13° SSW 01:57:43 55° WNW 02:01:38 10° N
Cosmos 2082 4.2 01:53:29 14° SW 01:58:13 50° NW 02:03:41 10° NNE
SL-4 R/B 2.7 01:59:24 10° W 02:02:11 23° SW 02:04:56 10° SSE
ERS-2 2.2 01:58:35 10° SSE 02:02:13 82° ENE 02:05:54 10° NNW
Cosmos 1953 2.3 01:59:57 10° S 02:03:59 90° W 02:08:03 10° N
SL-16 R/B 3.3 02:02:30 10° NW 02:06:51 23° WSW 02:11:11 10° SSW
Cosmos 1726 2.1 02:04:25 10° SSW 02:08:06 71° W 02:11:47 10° N
Cosmos 1908 4.1 02:05:57 10° S 02:09:43 50° E 02:13:33 10° NNE
Cosmos 1937 Rocket 3.7 02:06:57 10° SSW 02:12:14 67° WNW 02:17:34 10° NNE
ARIANE 5 R/B 2.9 02:07:28 10° N 02:12:31 52° WNW 02:17:35 10° SW
H-2A R/B 2.0 02:10:06 10° S 02:14:11 62° WSW 02:18:16 10° NNW
CZ-2D R/B 4.0 02:11:18 10° NNW 02:14:41 17° NW 02:18:03 10° W
NOSS 2-3 (E) 4.1 02:10:47 10° SSW 02:15:01 62° SE 02:20:05 10° NE
IDEFIX/ARIANE 42P 2.6 02:10:20 10° N 02:15:31 71° WNW 02:20:41 10° SSW
SL-16 R/B 4.4 02:15:21 10° W 02:16:40 11° W 02:17:58 10° WNW
Cosmos 1898 Rocket 4.0 02:11:42 10° SW 02:16:41 47° WNW 02:21:45 10° NNE
Cosmos 1825 Rocket 4.0 02:12:37 10° N 02:16:58 66° ENE 02:21:15 10° SSE
USA 267 3.5 02:13:07 10° SSE 02:19:20 45° SW 02:25:35 10° WNW
Cosmos 1328 3.9 02:18:57 10° N 02:22:59 85° E 02:26:58 10° S
NOSS 3-1 (C) 3.5 02:17:34 10° SW 02:23:08 78° NW 02:29:47 10° NE
ADEOS II 3.3 02:19:03 10° N 02:23:24 27° WNW 02:27:44 10° WSW
CZ-4C R/B 3.3 02:23:54 10° S 02:26:56 39° W 02:30:04 10° NNW
Timation 1 Rocket 4.5 02:23:34 10° SW 02:29:30 69° NW 02:35:29 10° NNE
CZ-4B R/B 2.1 02:27:13 10° SSE 02:30:27 57° ENE 02:33:37 10° N
Cosmos 1553 Rocket 4.1 02:24:35 10° S 02:30:39 85° E 02:36:47 10° N
Cosmos 2263 Rocket 2.2 02:25:11 10° SSW 02:30:46 89° ESE 02:36:23 10° NNE
COSMOS 2441 4.4 02:27:04 10° NNE 02:31:54 79° WNW 02:36:42 10° SSW
Cosmos 2297 Rocket 4.0 02:29:19 10° W 02:33:29 21° NW 02:37:40 10° N
Cosmos 1703 3.3 02:30:02 10° NNW 02:33:59 62° W 02:37:54 10° S
Cosmos 372 Rocket 4.0 02:29:51 10° SSW 02:35:04 84° WNW 02:40:21 10° NNE
Cosmos 1745 Rocket 4.1 02:31:30 10° N 02:37:52 88° E 02:44:07 10° S
